Point Lay, AK

12:07 PM AKST on February 10, 2016 (GMT -0900)
Point Lay

Weather History for PPIZ - December, 2013

Change the Weather History Date:

Tuesday, December 3, 2013

  Actual Average Record
Temperature  
Mean Temperature 24 °F -  
Max Temperature 28 °F 1 °F 28 °F (2013)
Min Temperature 21 °F -3 °F -26 °F (2011)
Degree Days  
Heating Degree Days 40    
Moisture  
Dew Point 24 °F    
Average Humidity 89    
Maximum Humidity 96    
Minimum Humidity 80    
Precipitation  
Precipitation 0.00 in - - ()
Sea Level Pressure  
Sea Level Pressure 30.24 in    
Wind  
Wind Speed 19 mph (SSW)    
Max Wind Speed 38 mph    
Max Gust Speed 45 mph    
Visibility 9 miles    
Events Snow    
Averages and records for this station are not official NWS values.
T = Trace of Precipitation, MM = Missing Value Source: NWS Daily Summary

Daily Weather History Graph

Daily Weather History Graph

Search for Another Location

Airport or City:

Trip Planner

Search our weather history database for the weather conditions in past years. The results will help you decide how hot, cold, wet, or windy it might be!

Date:

Astronomy

Dec. 03, 2013 Rise Set
Actual Time 1:09 PM AKST 2:14 PM AKST
Civil Twilight 11:06 AM AKST 4:16 PM AKST
Nautical Twilight 9:30 AM AKST 5:52 PM AKST
Astronomical Twilight 8:14 AM AKST 7:09 PM AKST
Moon 1:42 PM AKST (12/3) 3:41 PM AKST (12/3)
Length of Visible Light 5h 10m
Length of Day
1h 04m
New Moon, 1% of the Moon is Illuminated
Dec 3
New Moon
Dec 9
First Quarter
Dec 17
Full
Dec 25
Last Quarter
Jan 1
New

Hourly Weather History & Observations

Time (AKST) Temp. Windchill Dew Point Humidity Pressure Visibility Wind Dir Wind Speed Gust Speed Precip Events Conditions
12:19 AM 21.2 °F 8.9 °F 15.8 °F 80% 30.30 in - South 12.7 mph - 0.00 in Snow Light Snow
12:34 AM 21.2 °F 10.1 °F 17.6 °F 86% 30.30 in - South 10.4 mph - 0.00 in Snow Light Snow
12:43 AM 21.2 °F 9.5 °F 19.4 °F 93% 30.30 in - South 11.5 mph - 0.00 in Snow Light Snow
12:56 AM 22.1 °F 10.0 °F 19.0 °F 88% 30.31 in - South 12.7 mph - 0.00 in Snow Light Snow
1:09 AM 21.2 °F 9.5 °F 19.4 °F 93% 30.30 in - South 11.5 mph - 0.00 in Snow Light Snow
1:21 AM 23.0 °F 13.1 °F 19.4 °F 86% 30.29 in - SSE 9.2 mph - 0.00 in Snow Light Snow
1:56 AM 23.0 °F 12.4 °F 20.1 °F 89% 30.30 in - SSE 10.4 mph - 0.00 in Snow Light Snow
2:56 AM 25.2 °F 12.4 °F 21.0 °F 84% 30.28 in 10.0 mi SSE 16.1 mph - 0.00 in   Scattered Clouds
3:56 AM 24.1 °F 13.1 °F 20.1 °F 85% 30.27 in 10.0 mi SSE 11.5 mph - N/A   Overcast
4:56 AM 25.2 °F 14.4 °F 20.1 °F 81% 30.25 in - SSE 11.5 mph - N/A   Overcast
5:23 AM 24.8 °F 13.4 °F 21.2 °F 86% 30.23 in - SSE 12.7 mph - 0.00 in Snow Light Snow
5:56 AM 28.4 °F 14.7 °F 23.0 °F 80% 30.22 in - South 21.9 mph - N/A Snow Light Snow
6:33 AM 28.4 °F 16.2 °F 23.0 °F 80% 30.21 in - South 17.3 mph - 0.00 in   Mostly Cloudy
6:56 AM 28.0 °F 15.7 °F 23.0 °F 81% 30.22 in - South 17.3 mph - 0.00 in   Mostly Cloudy
7:08 AM 28.4 °F 16.2 °F 23.0 °F 80% 30.20 in - South 17.3 mph - 0.00 in   Mostly Cloudy
7:16 AM 28.4 °F 15.1 °F 24.8 °F 86% 30.19 in - South 20.7 mph - 0.00 in   Mostly Cloudy
7:26 AM 28.4 °F 14.7 °F 24.8 °F 86% 30.19 in - South 21.9 mph - 0.00 in   Mostly Cloudy
7:33 AM 28.4 °F 15.1 °F 24.8 °F 86% 30.18 in - South 20.7 mph - 0.00 in   Mostly Cloudy
7:48 AM 28.4 °F 13.8 °F 24.8 °F 86% 30.18 in - South 25.3 mph - 0.00 in   Mostly Cloudy
7:56 AM 28.0 °F 13.6 °F 24.1 °F 85% 30.19 in 5.0 mi South 24.2 mph - 0.00 in   Mostly Cloudy
8:15 AM 28.4 °F 14.1 °F 24.8 °F 86% 30.18 in - South 24.2 mph - 0.00 in   Mostly Cloudy
8:26 AM 28.4 °F 14.1 °F 24.8 °F 86% 30.17 in - South 24.2 mph - 0.00 in   Mostly Cloudy
8:46 AM 28.4 °F 13.5 °F 24.8 °F 86% 30.17 in - South 26.5 mph - 0.00 in   Mostly Cloudy
8:56 AM 28.0 °F 13.3 °F 25.2 °F 89% 30.18 in - South 25.3 mph - 0.00 in   Mostly Cloudy
9:10 AM 28.4 °F 13.8 °F 24.8 °F 86% 30.17 in - South 25.3 mph - 0.00 in   Mostly Cloudy
9:38 AM 26.6 °F 11.1 °F 24.8 °F 93% 30.16 in - South 26.5 mph - 0.00 in   Mostly Cloudy
9:56 AM 27.1 °F 12.1 °F 24.1 °F 88% 30.17 in - South 25.3 mph - 0.00 in Snow Light Snow
10:10 AM 26.6 °F 12.0 °F 24.8 °F 93% 30.16 in - South 23.0 mph - 0.00 in Snow Light Snow
10:20 AM 28.4 °F 12.7 °F 24.8 °F 86% 30.16 in - South 29.9 mph - 0.00 in Snow Light Snow
10:27 AM 28.4 °F 13.0 °F 26.6 °F 93% 30.16 in - South 28.8 mph - 0.00 in Snow Light Snow
10:56 AM 28.0 °F 11.3 °F 26.1 °F 92% 30.17 in - SSW 34.5 mph 40.3 mph 0.00 in   Mostly Cloudy
11:08 AM 28.4 °F 11.2 °F 26.6 °F 93% 30.15 in - SSW 38.0 mph 43.7 mph 0.00 in   Mostly Cloudy
11:37 AM 28.4 °F 11.4 °F 26.6 °F 93% 30.15 in - SSW 36.8 mph 42.6 mph 0.00 in Snow Light Snow
11:56 AM 28.0 °F 10.9 °F 26.1 °F 92% 30.17 in - SSW 36.8 mph 44.9 mph 0.00 in Snow Light Snow
12:56 PM 28.0 °F 11.1 °F 26.1 °F 92% 30.18 in - SSW 35.7 mph 42.6 mph 0.00 in Snow Light Snow
1:23 PM 28.4 °F 11.2 °F 26.6 °F 93% 30.17 in - SSW 38.0 mph 42.6 mph 0.00 in   Mostly Cloudy
1:56 PM 28.0 °F 11.3 °F 26.1 °F 92% 30.19 in - SSW 34.5 mph 41.4 mph 0.00 in   Mostly Cloudy
2:48 PM 28.4 °F 11.6 °F 26.6 °F 93% 30.19 in - SSW 35.7 mph 41.4 mph 0.00 in Snow Light Snow
2:56 PM 28.0 °F 12.0 °F 26.1 °F 92% 30.20 in - SSW 31.1 mph 41.4 mph 0.00 in   Overcast
3:47 PM 28.4 °F 12.0 °F 26.6 °F 93% 30.21 in - SW 33.4 mph - 0.00 in Snow Light Snow
3:56 PM 28.0 °F 12.3 °F 26.1 °F 92% 30.22 in - SW 29.9 mph 39.1 mph 0.00 in Snow Light Snow
4:46 PM 28.4 °F 14.4 °F 26.6 °F 93% 30.23 in - SW 23.0 mph 31.1 mph 0.00 in Snow Light Snow
4:56 PM 28.0 °F 12.8 °F 26.1 °F 92% 30.24 in - SW 27.6 mph 33.4 mph 0.00 in Snow Light Snow
5:23 PM 28.4 °F 15.4 °F 26.6 °F 93% 30.25 in - SW 19.6 mph - 0.00 in Snow Light Snow
5:30 PM 28.4 °F 14.7 °F 26.6 °F 93% 30.25 in - SW 21.9 mph - 0.00 in Snow Light Snow
5:56 PM 28.0 °F 12.8 °F 26.1 °F 92% 30.26 in - SW 27.6 mph - 0.00 in   Overcast
6:34 PM 28.4 °F 14.1 °F 26.6 °F 93% 30.26 in - SW 24.2 mph - N/A   Overcast
6:44 PM 28.4 °F 14.1 °F 26.6 °F 93% 30.26 in - SW 24.2 mph - N/A   Overcast
6:56 PM 28.0 °F 13.6 °F 27.1 °F 96% 30.28 in - SW 24.2 mph - 0.00 in Snow Light Snow
7:05 PM 28.4 °F 14.7 °F 26.6 °F 93% 30.27 in - SW 21.9 mph - 0.00 in Snow Light Snow
7:56 PM 28.0 °F 15.7 °F 26.1 °F 92% 30.31 in - West 17.3 mph - 0.00 in Snow Light Snow
8:12 PM 26.6 °F 13.8 °F 24.8 °F 93% 30.31 in - WSW 17.3 mph - 0.00 in   Overcast
8:56 PM 26.6 °F 13.4 °F 24.8 °F 93% 30.32 in - WSW 18.4 mph - N/A   Mostly Cloudy
9:07 PM 26.6 °F 13.4 °F 24.8 °F 93% 30.33 in - WSW 18.4 mph - N/A   Mostly Cloudy
9:56 PM 27.1 °F 14.9 °F 24.1 °F 88% 30.36 in 10.0 mi WSW 16.1 mph - N/A   Scattered Clouds
10:05 PM 26.6 °F 14.7 °F 24.8 °F 93% 30.35 in 10.0 mi SW 15.0 mph - N/A   Mostly Cloudy
10:56 PM 26.1 °F 13.1 °F 24.1 °F 92% 30.38 in - WSW 17.3 mph - N/A   Mostly Cloudy
11:56 PM 26.1 °F 12.7 °F 23.0 °F 88% 30.40 in - WSW 18.4 mph - 0.00 in   Overcast